Time,TemperatureF,DewpointF,PressureIn,WindDirection,WindDirectionDegrees,WindSpeedMPH,WindSpeedGustMPH,Humidity,HourlyPrecipIn,Conditions,Clouds,dailyrainin,SoftwareType,DateUTC
2013-11-06 00:01:00,35.7,33.1,30.40,NNW,347,0.0,0.0,90,0.00,,,0.00,WeatherDisplay:10.37,2013-11-06 05:01:00,
2013-11-06 00:02:00,35.7,33.1,30.40,NNW,347,0.0,0.0,90,0.00,,,0.00,WeatherDisplay:10.37,2013-11-06 05:02:00,
2013-11-06 00:07:00,35.7,33.1,30.40,NNE,33,2.0,2.0,90,0.00,,,0.00,WeatherDisplay:10.37,2013-11-06 05:07:00,
2013-11-06 00:12:00,35.8,33.4,30.40,East,88,2.3,2.3,91,0.00,,,0.00,WeatherDisplay:10.37,2013-11-06 05:12:00,
2013-11-06 00:17:00,36.3,34.2,30.40,East,89,0.0,0.0,92,0.00,,,0.00,WeatherDisplay:10.37,2013-11-06 05:17:00,
2013-11-06 00:22:00,36.3,33.9,30.40,East,89,1.0,1.0,91,0.00,,,0.00,WeatherDisplay:10.37,2013-11-06 05:22:00,
2013-11-06 00:27:00,36.1,33.7,30.40,East,89,0.0,0.0,91,0.00,,,0.00,WeatherDisplay:10.37,2013-11-06 05:27:00,
2013-11-06 00:32:00,35.9,33.5,30.40,East,89,0.0,0.0,91,0.00,,,0.00,WeatherDisplay:10.37,2013-11-06 05:32:00,
2013-11-06 00:37:00,35.8,33.4,30.40,East,89,0.0,0.0,91,0.00,,,0.00,WeatherDisplay:10.37,2013-11-06 05:37:00,
2013-11-06 00:42:00,35.7,33.3,30.40,East,89,1.0,0.0,91,0.00,,,0.00,WeatherDisplay:10.37,2013-11-06 05:42:00,
2013-11-06 00:47:00,35.7,33.3,30.40,East,89,0.0,0.0,91,0.00,,,0.00,WeatherDisplay:10.37,2013-11-06 05:47:00,
2013-11-06 00:52:00,35.7,33.6,30.40,East,89,0.0,0.0,92,0.00,,,0.00,WeatherDisplay:10.37,2013-11-06 05:52:00,
2013-11-06 00:57:00,35.6,33.5,30.40,East,89,0.0,0.0,92,0.00,,,0.00,WeatherDisplay:10.37,2013-11-06 05:57:00,
2013-11-06 01:02:00,35.8,33.7,30.40,East,89,1.2,1.2,92,0.00,,,0.00,WeatherDisplay:10.37,2013-11-06 06:02:00,
2013-11-06 01:07:00,35.8,33.7,30.39,East,89,0.0,0.0,92,0.00,,,0.00,WeatherDisplay:10.37,2013-11-06 06:07:00,
2013-11-06 01:12:00,35.8,33.7,30.39,East,89,0.0,0.0,92,0.00,,,0.00,WeatherDisplay:10.37,2013-11-06 06:12:00,
2013-11-06 01:17:00,35.7,33.6,30.39,East,89,0.0,0.0,92,0.00,,,0.00,WeatherDisplay:10.37,2013-11-06 06:17:00,
2013-11-06 01:22:00,35.5,33.4,30.39,East,89,0.0,0.0,92,0.00,,,0.00,WeatherDisplay:10.37,2013-11-06 06:22:00,
2013-11-06 01:27:00,35.3,33.2,30.39,East,89,0.0,0.0,92,0.00,,,0.00,WeatherDisplay:10.37,2013-11-06 06:27:00,
2013-11-06 01:32:00,35.3,33.2,30.39,East,89,0.0,0.0,92,0.00,,,0.00,WeatherDisplay:10.37,2013-11-06 06:32:00,
2013-11-06 01:37:00,35.3,33.5,30.39,East,89,0.0,0.0,93,0.00,,,0.00,WeatherDisplay:10.37,2013-11-06 06:37:00,
2013-11-06 01:42:00,35.2,33.4,30.39,East,89,0.0,0.0,93,0.00,,,0.00,WeatherDisplay:10.37,2013-11-06 06:42:00,
2013-11-06 01:47:00,35.0,33.2,30.38,East,89,0.0,0.0,93,0.00,,,0.00,WeatherDisplay:10.37,2013-11-06 06:47:00,
2013-11-06 01:52:00,34.8,33.0,30.38,East,89,0.0,0.0,93,0.00,,,0.00,WeatherDisplay:10.37,2013-11-06 06:52:00,
2013-11-06 01:57:00,34.9,33.1,30.38,East,89,0.0,0.0,93,0.00,,,0.00,WeatherDisplay:10.37,2013-11-06 06:57:00,
2013-11-06 02:02:00,35.1,33.3,30.38,East,89,0.0,0.0,93,0.00,,,0.00,WeatherDisplay:10.37,2013-11-06 07:02:00,
2013-11-06 02:07:00,35.1,33.3,30.38,East,89,0.0,0.0,93,0.00,,,0.00,WeatherDisplay:10.37,2013-11-06 07:07:00,
2013-11-06 02:12:00,35.2,33.4,30.38,East,89,0.0,0.0,93,0.00,,,0.00,WeatherDisplay:10.37,2013-11-06 07:12:00,
2013-11-06 02:17:00,35.3,33.7,30.38,East,89,0.0,0.0,94,0.00,,,0.00,WeatherDisplay:10.37,2013-11-06 07:17:00,
2013-11-06 02:22:00,35.4,33.8,30.38,East,89,1.2,1.2,94,0.00,,,0.00,WeatherDisplay:10.37,2013-11-06 07:22:00,
2013-11-06 02:27:00,35.4,33.8,30.38,NNW,337,0.0,0.0,94,0.00,,,0.00,WeatherDisplay:10.37,2013-11-06 07:27:00,
2013-11-06 02:32:00,35.5,33.9,30.38,NNW,338,0.0,0.0,94,0.00,,,0.00,WeatherDisplay:10.37,2013-11-06 07:32:00,
2013-11-06 02:37:00,35.5,33.9,30.38,NNW,337,0.0,0.0,94,0.00,,,0.00,WeatherDisplay:10.37,2013-11-06 07:37:00,
2013-11-06 02:42:00,35.2,33.4,30.38,NNW,337,0.0,0.0,93,0.00,,,0.00,WeatherDisplay:10.37,2013-11-06 07:42:00,
2013-11-06 02:47:00,35.1,33.5,30.37,NNW,337,0.0,0.0,94,0.00,,,0.00,WeatherDisplay:10.37,2013-11-06 07:47:00,
2013-11-06 02:52:00,35.2,33.6,30.37,NNW,337,0.0,0.0,94,0.00,,,0.00,WeatherDisplay:10.37,2013-11-06 07:52:00,
2013-11-06 02:57:00,35.3,33.7,30.37,NNW,337,0.0,0.0,94,0.00,,,0.00,WeatherDisplay:10.37,2013-11-06 07:57:00,
2013-11-06 03:02:00,35.6,34.0,30.37,NNW,337,0.0,0.0,94,0.00,,,0.00,WeatherDisplay:10.37,2013-11-06 08:02:00,
2013-11-06 03:07:00,35.7,34.1,30.36,NNW,337,0.0,0.0,94,0.00,,,0.00,WeatherDisplay:10.37,2013-11-06 08:07:00,
2013-11-06 03:12:00,35.8,34.2,30.36,NNW,337,0.0,0.0,94,0.00,,,0.00,WeatherDisplay:10.37,2013-11-06 08:12:00,
2013-11-06 03:17:00,35.9,34.3,30.36,NNW,337,0.0,0.0,94,0.00,,,0.00,WeatherDisplay:10.37,2013-11-06 08:17:00,
2013-11-06 03:22:00,35.8,34.2,30.36,NNW,338,0.0,0.0,94,0.00,,,0.00,WeatherDisplay:10.37,2013-11-06 08:22:00,
2013-11-06 03:27:00,35.7,34.1,30.36,NNW,337,0.0,0.0,94,0.00,,,0.00,WeatherDisplay:10.37,2013-11-06 08:27:00,
2013-11-06 03:32:00,35.7,34.1,30.35,NNW,337,0.0,0.0,94,0.00,,,0.00,WeatherDisplay:10.37,2013-11-06 08:32:00,
2013-11-06 03:37:00,35.7,34.4,30.35,NNW,337,0.0,0.0,95,0.00,,,0.00,WeatherDisplay:10.37,2013-11-06 08:37:00,
2013-11-06 03:42:00,35.8,34.5,30.35,NNW,337,0.0,0.0,95,0.00,,,0.00,WeatherDisplay:10.37,2013-11-06 08:42:00,
2013-11-06 03:47:00,35.7,34.1,30.35,NNW,337,0.0,0.0,94,0.00,,,0.00,WeatherDisplay:10.37,2013-11-06 08:47:00,
2013-11-06 03:52:00,35.4,33.8,30.35,NNW,338,0.0,0.0,94,0.00,,,0.00,WeatherDisplay:10.37,2013-11-06 08:52:00,
2013-11-06 03:57:00,35.2,33.6,30.35,NNW,337,0.0,0.0,94,0.00,,,0.00,WeatherDisplay:10.37,2013-11-06 08:57:00,
2013-11-06 04:02:00,35.1,33.5,30.35,NNW,338,0.0,0.0,94,0.00,,,0.00,WeatherDisplay:10.37,2013-11-06 09:02:00,
2013-11-06 04:07:00,35.1,33.8,30.35,NNW,337,0.0,0.0,95,0.00,,,0.00,WeatherDisplay:10.37,2013-11-06 09:07:00,
2013-11-06 04:12:00,35.1,33.8,30.35,NNW,337,0.0,0.0,95,0.00,,,0.00,WeatherDisplay:10.37,2013-11-06 09:12:00,
2013-11-06 04:17:00,35.1,33.8,30.35,NNW,338,0.0,0.0,95,0.00,,,0.00,WeatherDisplay:10.37,2013-11-06 09:17:00,
2013-11-06 04:22:00,35.2,33.9,30.35,NNW,337,0.0,0.0,95,0.00,,,0.00,WeatherDisplay:10.37,2013-11-06 09:22:00,
2013-11-06 04:27:00,35.5,34.2,30.35,NNW,338,0.0,0.0,95,0.00,,,0.00,WeatherDisplay:10.37,2013-11-06 09:27:00,
2013-11-06 04:32:00,35.7,34.4,30.35,NNW,337,0.0,0.0,95,0.00,,,0.00,WeatherDisplay:10.37,2013-11-06 09:32:00,
2013-11-06 04:37:00,35.8,34.5,30.35,NNW,337,0.0,0.0,95,0.00,,,0.00,WeatherDisplay:10.37,2013-11-06 09:37:00,
2013-11-06 04:42:00,35.9,34.6,30.35,NNW,338,0.0,0.0,95,0.00,,,0.00,WeatherDisplay:10.37,2013-11-06 09:42:00,
2013-11-06 04:47:00,35.9,34.6,30.35,NNW,337,0.0,0.0,95,0.00,,,0.00,WeatherDisplay:10.37,2013-11-06 09:47:00,
2013-11-06 04:52:00,35.9,34.6,30.35,NNW,337,0.0,0.0,95,0.00,,,0.00,WeatherDisplay:10.37,2013-11-06 09:52:00,
2013-11-06 04:57:00,35.9,34.6,30.35,NNW,338,0.0,0.0,95,0.00,,,0.00,WeatherDisplay:10.37,2013-11-06 09:57:00,
2013-11-06 05:02:00,36.0,34.7,30.35,NNW,337,0.0,0.0,95,0.00,,,0.00,WeatherDisplay:10.37,2013-11-06 10:02:00,
2013-11-06 05:08:00,35.9,34.6,30.35,NNW,337,0.0,0.0,95,0.00,,,0.00,WeatherDisplay:10.37,2013-11-06 10:08:00,
2013-11-06 05:13:00,36.0,34.7,30.35,NNW,337,0.0,0.1,95,0.00,,,0.00,WeatherDisplay:10.37,2013-11-06 10:13:00,
2013-11-06 05:18:00,36.0,34.7,30.34,NNW,337,0.0,0.0,95,0.00,,,0.00,WeatherDisplay:10.37,2013-11-06 10:18:00,
2013-11-06 05:23:00,36.0,34.7,30.34,NNW,337,0.0,0.0,95,0.00,,,0.00,WeatherDisplay:10.37,2013-11-06 10:23:00,
2013-11-06 05:28:00,36.1,34.8,30.34,NNW,337,0.0,0.0,95,0.00,,,0.00,WeatherDisplay:10.37,2013-11-06 10:28:00,
2013-11-06 05:33:00,36.1,34.8,30.34,NNW,337,0.0,0.0,95,0.00,,,0.00,WeatherDisplay:10.37,2013-11-06 10:33:00,
2013-11-06 05:38:00,36.0,34.7,30.34,NNW,338,0.0,0.0,95,0.00,,,0.00,WeatherDisplay:10.37,2013-11-06 10:38:00,
2013-11-06 05:43:00,35.9,34.6,30.34,NNW,337,0.0,0.0,95,0.00,,,0.00,WeatherDisplay:10.37,2013-11-06 10:43:00,
2013-11-06 05:48:00,35.9,34.6,30.34,NNW,338,0.0,0.0,95,0.00,,,0.00,WeatherDisplay:10.37,2013-11-06 10:48:00,
2013-11-06 05:53:00,35.8,34.5,30.34,NNW,337,0.0,0.0,95,0.00,,,0.00,WeatherDisplay:10.37,2013-11-06 10:53:00,
2013-11-06 05:58:00,35.8,34.5,30.34,NNW,338,0.0,0.0,95,0.00,,,0.00,WeatherDisplay:10.37,2013-11-06 10:58:00,
2013-11-06 06:03:00,35.7,34.4,30.34,NNW,337,0.0,0.0,95,0.00,,,0.00,WeatherDisplay:10.37,2013-11-06 11:03:00,
2013-11-06 06:08:00,35.9,34.9,30.34,NNW,338,0.0,0.0,96,0.00,,,0.00,WeatherDisplay:10.37,2013-11-06 11:08:00,
2013-11-06 06:13:00,35.8,34.5,30.34,NNW,337,0.0,0.0,95,0.00,,,0.00,WeatherDisplay:10.37,2013-11-06 11:13:00,
2013-11-06 06:18:00,35.6,34.3,30.34,NNW,338,0.0,0.0,95,0.00,,,0.00,WeatherDisplay:10.37,2013-11-06 11:18:00,
2013-11-06 06:23:00,35.5,34.2,30.34,NNW,337,0.0,0.0,95,0.00,,,0.00,WeatherDisplay:10.37,2013-11-06 11:23:00,
2013-11-06 06:28:00,35.5,34.2,30.34,NNW,338,0.0,0.0,95,0.00,CLR,,0.00,WeatherDisplay:10.37,2013-11-06 11:28:00,
2013-11-06 06:33:00,35.5,34.5,30.34,NNW,337,0.0,0.0,96,0.00,CLR,,0.00,WeatherDisplay:10.37,2013-11-06 11:33:00,
2013-11-06 06:38:00,35.5,34.5,30.34,NNW,337,0.0,0.0,96,0.00,CLR,,0.00,WeatherDisplay:10.37,2013-11-06 11:38:00,
2013-11-06 06:43:00,35.4,34.4,30.34,NNW,337,0.0,0.0,96,0.00,CLR,,0.00,WeatherDisplay:10.37,2013-11-06 11:43:00,
2013-11-06 06:48:00,35.2,33.9,30.34,NNW,337,0.0,0.0,95,0.00,CLR,,0.00,WeatherDisplay:10.37,2013-11-06 11:48:00,
2013-11-06 06:53:00,35.1,34.1,30.34,NNW,337,0.0,0.0,96,0.00,CLR,,0.00,WeatherDisplay:10.37,2013-11-06 11:53:00,
2013-11-06 06:58:00,35.0,34.0,30.34,NNW,337,0.0,0.0,96,0.00,CLR,,0.00,WeatherDisplay:10.37,2013-11-06 11:58:00,
2013-11-06 07:03:00,35.3,34.3,30.34,NNW,337,0.0,0.0,96,0.00,CLR,,0.00,WeatherDisplay:10.37,2013-11-06 12:03:00,
2013-11-06 07:08:00,35.7,34.7,30.34,NNW,337,0.0,0.0,96,0.00,CLR,,0.00,WeatherDisplay:10.37,2013-11-06 12:08:00,
2013-11-06 07:13:00,36.7,35.9,30.34,NNW,338,0.0,0.0,97,0.00,CLR,,0.00,WeatherDisplay:10.37,2013-11-06 12:13:00,
2013-11-06 07:18:00,37.4,36.6,30.34,NNW,337,1.2,0.0,97,0.00,CLR,,0.00,WeatherDisplay:10.37,2013-11-06 12:18:00,
2013-11-06 07:23:00,37.9,37.1,30.34,NNW,338,0.0,0.0,97,0.00,CLR,,0.00,WeatherDisplay:10.37,2013-11-06 12:23:00,
2013-11-06 07:28:00,39.2,38.7,30.34,NNW,337,0.0,0.1,98,0.00,CLR,,0.00,WeatherDisplay:10.37,2013-11-06 12:28:00,
2013-11-06 07:33:00,40.6,40.1,30.33,NNW,337,0.0,0.0,98,0.00,CLR,,0.00,WeatherDisplay:10.37,2013-11-06 12:33:00,
2013-11-06 07:38:00,40.6,40.1,30.33,NNW,337,0.0,0.0,98,0.00,CLR,,0.00,WeatherDisplay:10.37,2013-11-06 12:38:00,
2013-11-06 07:43:00,40.8,40.0,30.33,NNW,337,0.0,0.0,97,0.00,CLR,,0.00,WeatherDisplay:10.37,2013-11-06 12:43:00,
2013-11-06 07:48:00,41.9,41.4,30.33,NNW,337,0.0,0.0,98,0.00,CLR,,0.00,WeatherDisplay:10.37,2013-11-06 12:48:00,
2013-11-06 07:53:00,43.6,43.1,30.33,NNW,337,0.0,0.0,98,0.00,CLR,,0.00,WeatherDisplay:10.37,2013-11-06 12:53:00,
2013-11-06 07:58:00,45.3,44.8,30.33,NNW,338,0.0,0.0,98,0.00,CLR,,0.00,WeatherDisplay:10.37,2013-11-06 12:58:00,
2013-11-06 08:03:00,46.9,46.4,30.33,ENE,57,1.2,1.2,98,0.00,CLR,,0.00,WeatherDisplay:10.37,2013-11-06 13:03:00,
2013-11-06 08:08:00,48.5,48.2,30.33,East,81,2.0,2.0,99,0.00,CLR,,0.00,WeatherDisplay:10.37,2013-11-06 13:08:00,
2013-11-06 08:13:00,49.2,48.9,30.33,ESE,103,3.5,3.5,99,0.00,CLR,,0.00,WeatherDisplay:10.37,2013-11-06 13:13:00,
2013-11-06 08:18:00,49.8,49.5,30.33,East,92,2.3,2.3,99,0.00,CLR,,0.00,WeatherDisplay:10.37,2013-11-06 13:18:00,
2013-11-06 08:23:00,50.7,50.2,30.33,SE,135,1.2,1.2,98,0.00,CLR,,0.00,WeatherDisplay:10.37,2013-11-06 13:23:00,
2013-11-06 08:28:00,51.6,50.2,30.33,East,89,3.5,3.5,95,0.00,CLR,,0.00,WeatherDisplay:10.37,2013-11-06 13:28:00,
2013-11-06 08:33:00,52.7,50.7,30.33,SE,134,1.2,1.2,93,0.00,CLR,,0.00,WeatherDisplay:10.37,2013-11-06 13:33:00,
2013-11-06 08:38:00,53.7,50.8,30.33,East,82,5.0,5.0,90,0.00,CLR,,0.00,WeatherDisplay:10.37,2013-11-06 13:38:00,
2013-11-06 08:43:00,54.4,50.9,30.33,ESE,113,3.5,3.5,88,0.00,CLR,,0.00,WeatherDisplay:10.37,2013-11-06 13:43:00,
2013-11-06 08:48:00,55.2,51.1,30.33,East,88,7.0,7.0,86,0.00,CLR,,0.00,WeatherDisplay:10.37,2013-11-06 13:48:00,
2013-11-06 08:53:00,55.7,51.3,30.33,East,81,6.9,6.9,85,0.00,CLR,,0.00,WeatherDisplay:10.37,2013-11-06 13:53:00,
2013-11-06 08:58:00,56.1,51.0,30.33,ENE,78,6.9,6.9,83,0.00,CLR,,0.00,WeatherDisplay:10.37,2013-11-06 13:58:00,
2013-11-06 09:04:00,56.4,50.6,30.33,East,81,8.1,8.1,81,0.00,CLR,,0.00,WeatherDisplay:10.37,2013-11-06 14:04:00,
2013-11-06 09:09:00,56.8,51.0,30.33,East,80,8.1,8.1,81,0.00,CLR,,0.00,WeatherDisplay:10.37,2013-11-06 14:09:00,
2013-11-06 09:14:00,57.0,50.9,30.32,East,95,8.1,8.1,80,0.00,CLR,,0.00,WeatherDisplay:10.37,2013-11-06 14:14:00,
2013-11-06 09:19:00,57.3,51.2,30.32,NE,50,7.0,7.0,80,0.00,CLR,,0.00,WeatherDisplay:10.37,2013-11-06 14:19:00,
2013-11-06 09:24:00,57.8,51.3,30.32,ENE,75,6.9,6.9,79,0.00,CLR,,0.00,WeatherDisplay:10.37,2013-11-06 14:24:00,
2013-11-06 09:29:00,58.2,51.4,30.32,ENE,72,8.1,8.1,78,0.00,CLR,,0.00,WeatherDisplay:10.37,2013-11-06 14:29:00,
2013-11-06 09:34:00,58.7,51.5,30.32,NE,45,8.1,8.1,77,0.00,CLR,,0.00,WeatherDisplay:10.37,2013-11-06 14:34:00,
2013-11-06 09:39:00,59.2,52.0,30.31,ENE,78,10.4,10.4,77,0.00,CLR,,0.00,WeatherDisplay:10.37,2013-11-06 14:39:00,
2013-11-06 09:44:00,59.6,52.0,30.31,East,89,8.1,8.1,76,0.00,CLR,,0.00,WeatherDisplay:10.37,2013-11-06 14:44:00,
2013-11-06 09:49:00,60.0,51.7,30.31,East,80,5.8,5.8,74,0.00,CLR,,0.00,WeatherDisplay:10.37,2013-11-06 14:49:00,
2013-11-06 09:54:00,60.4,52.1,30.31,East,80,5.8,5.8,74,0.00,CLR,,0.00,WeatherDisplay:10.37,2013-11-06 14:54:00,
2013-11-06 09:59:00,60.5,51.4,30.31,ENE,76,7.0,7.0,72,0.00,CLR,,0.00,WeatherDisplay:10.37,2013-11-06 14:59:00,
2013-11-06 10:04:00,60.7,51.2,30.31,East,91,6.9,6.9,71,0.00,CLR,,0.00,WeatherDisplay:10.37,2013-11-06 15:04:00,
2013-11-06 10:09:00,61.1,52.0,30.31,ENE,75,4.6,4.6,72,0.00,CLR,,0.00,WeatherDisplay:10.37,2013-11-06 15:09:00,
2013-11-06 10:14:00,61.4,51.9,30.31,East,82,3.5,3.5,71,0.00,CLR,,0.00,WeatherDisplay:10.37,2013-11-06 15:14:00,
2013-11-06 10:19:00,61.6,51.3,30.30,ESE,112,5.8,5.8,69,0.00,CLR,,0.00,WeatherDisplay:10.37,2013-11-06 15:19:00,
2013-11-06 10:24:00,61.9,52.0,30.30,East,92,4.6,4.6,70,0.00,CLR,,0.00,WeatherDisplay:10.37,2013-11-06 15:24:00,
2013-11-06 10:29:00,62.3,51.6,30.30,North,8,4.6,4.6,68,0.00,CLR,,0.00,WeatherDisplay:10.37,2013-11-06 15:29:00,
2013-11-06 10:34:00,62.9,51.8,30.30,ENE,77,4.6,4.6,67,0.00,CLR,,0.00,WeatherDisplay:10.37,2013-11-06 15:34:00,
2013-11-06 10:39:00,63.2,51.6,30.30,ENE,75,5.8,5.8,66,0.00,CLR,,0.00,WeatherDisplay:10.37,2013-11-06 15:39:00,
2013-11-06 10:44:00,63.5,52.3,30.30,East,86,4.6,4.6,67,0.00,CLR,,0.00,WeatherDisplay:10.37,2013-11-06 15:44:00,
2013-11-06 10:49:00,64.0,52.0,30.29,East,84,3.5,3.5,65,0.00,CLR,,0.00,WeatherDisplay:10.37,2013-11-06 15:49:00,
2013-11-06 10:54:00,64.7,53.1,30.29,East,89,2.3,2.3,66,0.00,CLR,,0.00,WeatherDisplay:10.37,2013-11-06 15:54:00,
2013-11-06 10:59:00,65.4,52.5,30.29,NNE,22,6.9,6.9,63,0.00,CLR,,0.00,WeatherDisplay:10.37,2013-11-06 15:59:00,
2013-11-06 11:04:00,65.7,52.3,30.29,ENE,73,4.6,4.6,62,0.00,CLR,,0.00,WeatherDisplay:10.37,2013-11-06 16:04:00,
2013-11-06 11:09:00,66.3,52.4,30.28,WNW,302,5.8,5.8,61,0.00,CLR,,0.00,WeatherDisplay:10.37,2013-11-06 16:09:00,
2013-11-06 11:14:00,67.1,52.7,30.28,WSW,253,3.5,3.5,60,0.00,CLR,,0.00,WeatherDisplay:10.37,2013-11-06 16:14:00,
2013-11-06 11:19:00,67.7,52.4,30.28,WSW,245,3.5,3.5,58,0.00,CLR,,0.00,WeatherDisplay:10.37,2013-11-06 16:19:00,
2013-11-06 11:24:00,68.6,52.3,30.28,WSW,249,3.5,3.5,56,0.00,CLR,,0.00,WeatherDisplay:10.37,2013-11-06 16:24:00,
2013-11-06 11:29:00,68.2,52.4,30.27,SSE,153,10.0,10.0,57,0.00,CLR,,0.00,WeatherDisplay:10.37,2013-11-06 16:29:00,
2013-11-06 11:34:00,67.7,52.4,30.27,WSW,254,1.2,1.2,58,0.00,CLR,,0.00,WeatherDisplay:10.37,2013-11-06 16:34:00,
2013-11-06 11:39:00,68.1,51.8,30.27,NW,316,4.6,4.6,56,0.00,CLR,,0.00,WeatherDisplay:10.37,2013-11-06 16:39:00,
2013-11-06 11:44:00,68.9,53.0,30.27,West,272,2.3,2.3,57,0.00,CLR,,0.00,WeatherDisplay:10.37,2013-11-06 16:44:00,
2013-11-06 11:49:00,69.9,53.0,30.27,SSE,148,2.0,2.0,55,0.00,CLR,,0.00,WeatherDisplay:10.37,2013-11-06 16:49:00,
2013-11-06 11:54:00,70.0,53.1,30.26,East,85,4.0,4.0,55,0.00,CLR,,0.00,WeatherDisplay:10.37,2013-11-06 16:54:00,
2013-11-06 11:59:00,69.2,51.8,30.26,SSE,155,3.5,3.5,54,0.00,CLR,,0.00,WeatherDisplay:10.37,2013-11-06 16:59:00,
2013-11-06 12:04:00,69.1,52.2,30.26,ENE,78,5.0,5.0,55,0.00,CLR,,0.00,WeatherDisplay:10.37,2013-11-06 17:04:00,
2013-11-06 12:09:00,69.7,52.3,30.25,WSW,242,5.0,5.0,54,0.00,CLR,,0.00,WeatherDisplay:10.37,2013-11-06 17:09:00,
2013-11-06 12:14:00,70.3,51.3,30.25,WNW,300,15.0,15.0,51,0.00,CLR,,0.00,WeatherDisplay:10.37,2013-11-06 17:14:00,
2013-11-06 12:19:00,70.1,51.1,30.25,West,264,10.4,10.4,51,0.00,CLR,,0.00,WeatherDisplay:10.37,2013-11-06 17:19:00,
2013-11-06 12:24:00,70.6,52.1,30.25,WSW,239,5.8,5.8,52,0.00,CLR,,0.00,WeatherDisplay:10.37,2013-11-06 17:24:00,
2013-11-06 12:29:00,71.0,52.0,30.25,WSW,247,6.0,6.0,51,0.00,CLR,,0.00,WeatherDisplay:10.37,2013-11-06 17:29:00,
2013-11-06 12:34:00,70.9,50.8,30.25,West,270,4.0,4.0,49,0.00,CLR,,0.00,WeatherDisplay:10.37,2013-11-06 17:34:00,
2013-11-06 12:39:00,70.7,51.1,30.25,WSW,249,2.3,2.3,50,0.00,CLR,,0.00,WeatherDisplay:10.37,2013-11-06 17:39:00,
2013-11-06 12:44:00,70.3,50.8,30.24,WSW,239,11.5,11.5,50,0.00,CLR,,0.00,WeatherDisplay:10.37,2013-11-06 17:44:00,
2013-11-06 12:49:00,70.7,51.7,30.24,WSW,253,10.4,10.4,51,0.00,CLR,,0.00,WeatherDisplay:10.37,2013-11-06 17:49:00,
2013-11-06 12:54:00,71.3,52.2,30.24,WSW,254,9.2,9.2,51,0.00,CLR,,0.00,WeatherDisplay:10.37,2013-11-06 17:54:00,
2013-11-06 12:59:00,71.4,50.7,30.23,WSW,246,8.1,8.1,48,0.00,CLR,,0.00,WeatherDisplay:10.37,2013-11-06 17:59:00,
2013-11-06 13:04:00,71.2,50.5,30.23,WSW,253,11.5,11.5,48,0.00,CLR,,0.00,WeatherDisplay:10.37,2013-11-06 18:04:00,
2013-11-06 13:09:00,70.9,51.3,30.23,West,278,5.0,5.0,50,0.00,CLR,,0.00,WeatherDisplay:10.37,2013-11-06 18:09:00,
2013-11-06 13:14:00,70.5,50.4,30.22,WNW,299,8.1,8.1,49,0.00,CLR,,0.00,WeatherDisplay:10.37,2013-11-06 18:14:00,
2013-11-06 13:19:00,70.9,51.3,30.22,WSW,241,7.0,7.0,50,0.00,CLR,,0.00,WeatherDisplay:10.37,2013-11-06 18:19:00,
2013-11-06 13:24:00,71.3,51.1,30.22,NW,323,6.9,6.9,49,0.00,CLR,,0.00,WeatherDisplay:10.37,2013-11-06 18:24:00,
2013-11-06 13:29:00,71.2,50.5,30.21,West,271,6.9,6.9,48,0.00,CLR,,0.00,WeatherDisplay:10.37,2013-11-06 18:29:00,
2013-11-06 13:34:00,71.2,51.1,30.21,WSW,239,3.5,3.5,49,0.00,CLR,,0.00,WeatherDisplay:10.37,2013-11-06 18:34:00,
2013-11-06 13:39:00,71.4,50.7,30.21,SW,236,6.9,6.9,48,0.00,CLR,,0.00,WeatherDisplay:10.37,2013-11-06 18:39:00,
2013-11-06 13:44:00,70.8,50.1,30.21,WSW,241,11.5,11.5,48,0.00,CLR,,0.00,WeatherDisplay:10.37,2013-11-06 18:44:00,
2013-11-06 13:49:00,70.6,50.5,30.21,ESE,105,4.6,4.6,49,0.00,CLR,,0.00,WeatherDisplay:10.37,2013-11-06 18:49:00,
2013-11-06 13:54:00,70.5,50.4,30.20,SSW,194,5.8,5.8,49,0.00,CLR,,0.00,WeatherDisplay:10.37,2013-11-06 18:54:00,
2013-11-06 13:59:00,70.5,50.4,30.20,NW,326,11.5,11.5,49,0.00,CLR,,0.00,WeatherDisplay:10.37,2013-11-06 18:59:00,
2013-11-06 14:04:00,71.0,50.9,30.20,West,262,5.8,5.8,49,0.00,CLR,,0.00,WeatherDisplay:10.37,2013-11-06 19:04:00,
2013-11-06 14:09:00,71.1,50.4,30.20,SW,236,5.8,5.8,48,0.00,CLR,,0.00,WeatherDisplay:10.37,2013-11-06 19:09:00,
2013-11-06 14:14:00,71.1,50.4,30.19,WNW,296,13.8,13.8,48,0.00,CLR,,0.00,WeatherDisplay:10.37,2013-11-06 19:14:00,
2013-11-06 14:19:00,71.1,50.4,30.19,WSW,245,12.7,12.7,48,0.00,CLR,,0.00,WeatherDisplay:10.37,2013-11-06 19:19:00,
2013-11-06 14:25:00,70.9,50.8,30.19,West,260,9.2,9.2,49,0.00,CLR,,0.00,WeatherDisplay:10.37,2013-11-06 19:25:00,
2013-11-06 14:30:00,71.2,51.1,30.19,West,269,5.8,5.8,49,0.00,CLR,,0.00,WeatherDisplay:10.37,2013-11-06 19:30:00,
2013-11-06 14:35:00,71.6,50.9,30.19,NW,312,4.0,4.0,48,0.00,CLR,,0.00,WeatherDisplay:10.37,2013-11-06 19:35:00,
2013-11-06 14:40:00,71.8,50.5,30.18,WSW,256,6.9,6.9,47,0.00,CLR,,0.00,WeatherDisplay:10.37,2013-11-06 19:40:00,
2013-11-06 14:45:00,72.0,51.2,30.18,WSW,251,1.0,7.0,48,0.00,CLR,,0.00,WeatherDisplay:10.37,2013-11-06 19:45:00,
2013-11-06 14:50:00,71.9,50.6,30.18,WNW,284,5.8,5.8,47,0.00,CLR,,0.00,WeatherDisplay:10.37,2013-11-06 19:50:00,
2013-11-06 14:55:00,71.7,50.4,30.18,WSW,255,1.0,8.0,47,0.00,CLR,,0.00,WeatherDisplay:10.37,2013-11-06 19:55:00,
2013-11-06 14:59:00,71.9,51.1,30.17,WSW,248,3.5,3.5,48,0.00,CLR,,0.00,WeatherDisplay:10.37,2013-11-06 19:59:00,
2013-11-06 15:05:00,72.0,50.7,30.17,West,259,1.2,1.2,47,0.00,CLR,,0.00,WeatherDisplay:10.37,2013-11-06 20:05:00,
2013-11-06 15:10:00,71.9,50.6,30.17,West,270,3.0,9.0,47,0.00,CLR,,0.00,WeatherDisplay:10.37,2013-11-06 20:10:00,
2013-11-06 15:15:00,71.5,50.8,30.17,West,274,3.0,8.0,48,0.00,CLR,,0.00,WeatherDisplay:10.37,2013-11-06 20:15:00,
2013-11-06 15:20:00,71.6,50.3,30.17,WNW,300,4.0,4.0,47,0.00,CLR,,0.00,WeatherDisplay:10.37,2013-11-06 20:20:00,
2013-11-06 15:25:00,71.2,50.5,30.17,WNW,282,2.0,5.0,48,0.00,CLR,,0.00,WeatherDisplay:10.37,2013-11-06 20:25:00,
2013-11-06 15:30:00,71.2,51.0,30.17,WNW,295,1.0,3.0,49,0.00,CLR,,0.00,WeatherDisplay:10.37,2013-11-06 20:30:00,
2013-11-06 15:35:00,70.3,50.2,30.17,West,278,4.0,4.0,49,0.00,CLR,,0.00,WeatherDisplay:10.37,2013-11-06 20:35:00,
2013-11-06 15:39:00,69.6,50.1,30.16,WNW,290,6.9,6.9,50,0.00,CLR,,0.00,WeatherDisplay:10.37,2013-11-06 20:39:00,
2013-11-06 15:45:00,69.2,50.3,30.17,WSW,243,3.5,3.5,51,0.00,CLR,,0.00,WeatherDisplay:10.37,2013-11-06 20:45:00,
2013-11-06 15:50:00,68.9,50.0,30.16,NW,311,8.1,8.1,51,0.00,CLR,,0.00,WeatherDisplay:10.37,2013-11-06 20:50:00,
2013-11-06 15:55:00,68.7,50.4,30.16,West,271,0.0,5.0,52,0.00,CLR,,0.00,WeatherDisplay:10.37,2013-11-06 20:55:00,
2013-11-06 16:00:00,69.3,50.4,30.16,WNW,298,1.2,1.2,51,0.00,CLR,,0.00,WeatherDisplay:10.37,2013-11-06 21:00:00,
2013-11-06 16:05:00,70.0,50.5,30.16,WNW,291,2.0,4.0,50,0.00,CLR,,0.00,WeatherDisplay:10.37,2013-11-06 21:05:00,
2013-11-06 16:10:00,71.1,51.0,30.15,WSW,245,1.2,1.2,49,0.00,CLR,,0.00,WeatherDisplay:10.37,2013-11-06 21:10:00,
2013-11-06 16:15:00,71.8,51.0,30.15,NW,308,4.0,4.0,48,0.00,CLR,,0.00,WeatherDisplay:10.37,2013-11-06 21:15:00,
2013-11-06 16:20:00,71.9,50.6,30.15,WSW,250,5.8,5.8,47,0.00,CLR,,0.00,WeatherDisplay:10.37,2013-11-06 21:20:00,
2013-11-06 16:25:00,72.0,50.7,30.15,WNW,291,3.5,3.5,47,0.00,CLR,,0.00,WeatherDisplay:10.37,2013-11-06 21:25:00,
2013-11-06 16:30:00,71.5,50.2,30.15,WSW,253,3.5,3.5,47,0.00,CLR,,0.00,WeatherDisplay:10.37,2013-11-06 21:30:00,
2013-11-06 16:35:00,71.1,49.8,30.15,WSW,237,4.6,4.6,47,0.00,CLR,,0.00,WeatherDisplay:10.37,2013-11-06 21:35:00,
2013-11-06 16:40:00,71.0,50.3,30.14,SW,235,2.3,2.3,48,0.00,CLR,,0.00,WeatherDisplay:10.37,2013-11-06 21:40:00,
2013-11-06 16:45:00,70.6,50.0,30.14,ESE,120,5.8,5.8,48,0.00,CLR,,0.00,WeatherDisplay:10.37,2013-11-06 21:45:00,
2013-11-06 16:50:00,70.1,50.0,30.14,SE,136,1.2,1.2,49,0.00,CLR,,0.00,WeatherDisplay:10.37,2013-11-06 21:50:00,
2013-11-06 16:55:00,69.7,50.2,30.14,East,87,0.0,0.0,50,0.00,CLR,,0.00,WeatherDisplay:10.37,2013-11-06 21:55:00,
2013-11-06 17:00:00,69.7,50.2,30.14,SE,137,2.3,2.3,50,0.00,CLR,,0.00,WeatherDisplay:10.37,2013-11-06 22:00:00,
2013-11-06 17:05:00,69.4,49.9,30.14,ESE,121,2.3,2.3,50,0.00,CLR,,0.00,WeatherDisplay:10.37,2013-11-06 22:05:00,
2013-11-06 17:10:00,68.3,49.5,30.14,NW,317,1.2,1.2,51,0.00,CLR,,0.00,WeatherDisplay:10.37,2013-11-06 22:10:00,
2013-11-06 17:15:00,67.3,49.6,30.14,SSE,167,1.2,1.2,53,0.00,CLR,,0.00,WeatherDisplay:10.37,2013-11-06 22:15:00,
2013-11-06 17:20:00,65.9,49.8,30.14,WSW,242,0.0,0.0,56,0.00,CLR,,0.00,WeatherDisplay:10.37,2013-11-06 22:20:00,
2013-11-06 17:25:00,64.5,49.4,30.14,SW,220,1.2,1.2,58,0.00,CLR,,0.00,WeatherDisplay:10.37,2013-11-06 22:25:00,
2013-11-06 17:30:00,63.1,49.0,30.13,SSW,194,2.3,2.3,60,0.00,CLR,,0.00,WeatherDisplay:10.37,2013-11-06 22:30:00,
2013-11-06 17:35:00,62.2,49.0,30.13,East,85,2.3,2.3,62,0.00,CLR,,0.00,WeatherDisplay:10.37,2013-11-06 22:35:00,
2013-11-06 17:40:00,61.7,49.0,30.13,East,99,1.2,1.2,63,0.00,CLR,,0.00,WeatherDisplay:10.37,2013-11-06 22:40:00,
2013-11-06 17:45:00,60.7,48.4,30.13,East,89,1.2,1.2,64,0.00,CLR,,0.00,WeatherDisplay:10.37,2013-11-06 22:45:00,
2013-11-06 17:50:00,59.8,48.4,30.13,East,90,1.2,1.2,66,0.00,CLR,,0.00,WeatherDisplay:10.37,2013-11-06 22:50:00,
2013-11-06 17:55:00,59.5,48.5,30.14,SE,145,1.0,1.0,67,0.00,CLR,,0.00,WeatherDisplay:10.37,2013-11-06 22:55:00,
2013-11-06 18:00:00,58.9,48.4,30.14,SE,145,1.2,1.2,68,0.00,,,0.00,WeatherDisplay:10.37,2013-11-06 23:00:00,
2013-11-06 18:05:00,58.1,48.4,30.14,SE,145,0.0,0.0,70,0.00,,,0.00,WeatherDisplay:10.37,2013-11-06 23:05:00,
2013-11-06 18:10:00,57.3,48.0,30.13,SE,146,1.2,1.2,71,0.00,,,0.00,WeatherDisplay:10.37,2013-11-06 23:10:00,
2013-11-06 18:15:00,56.7,47.8,30.14,SE,146,0.0,0.0,72,0.00,,,0.00,WeatherDisplay:10.37,2013-11-06 23:15:00,
2013-11-06 18:20:00,56.2,47.7,30.14,SE,145,0.0,0.0,73,0.00,,,0.00,WeatherDisplay:10.37,2013-11-06 23:20:00,
2013-11-06 18:25:00,56.1,47.9,30.14,SE,145,1.2,1.2,74,0.00,,,0.00,WeatherDisplay:10.37,2013-11-06 23:25:00,
2013-11-06 18:30:00,55.7,47.9,30.14,SE,145,1.2,1.2,75,0.00,,,0.00,WeatherDisplay:10.37,2013-11-06 23:30:00,
2013-11-06 18:35:00,55.3,47.5,30.14,SE,146,1.2,1.2,75,0.00,,,0.00,WeatherDisplay:10.37,2013-11-06 23:35:00,
2013-11-06 18:40:00,54.8,47.4,30.14,SE,146,0.0,0.0,76,0.00,,,0.00,WeatherDisplay:10.37,2013-11-06 23:40:00,
2013-11-06 18:45:00,54.5,47.4,30.14,SSE,161,0.0,0.0,77,0.00,,,0.00,WeatherDisplay:10.37,2013-11-06 23:45:00,
2013-11-06 18:50:00,54.3,47.2,30.14,SSE,161,0.0,0.0,77,0.00,,,0.00,WeatherDisplay:10.37,2013-11-06 23:50:00,
2013-11-06 18:55:00,53.9,47.2,30.14,SSE,161,0.0,0.0,78,0.00,,,0.00,WeatherDisplay:10.37,2013-11-06 23:55:00,
2013-11-06 19:00:00,53.5,46.8,30.14,SW,223,2.3,2.3,78,0.00,,,0.00,WeatherDisplay:10.37,2013-11-07 00:00:00,
2013-11-06 19:05:00,53.3,47.0,30.14,SSE,151,3.5,3.5,79,0.00,,,0.00,WeatherDisplay:10.37,2013-11-07 00:05:00,
2013-11-06 19:10:00,52.9,46.6,30.14,ENE,78,3.0,3.0,79,0.00,,,0.00,WeatherDisplay:10.37,2013-11-07 00:10:00,
2013-11-06 19:15:00,53.1,47.1,30.14,SE,134,2.3,2.3,80,0.00,,,0.00,WeatherDisplay:10.37,2013-11-07 00:15:00,
2013-11-06 19:20:00,53.2,46.9,30.14,SE,136,0.0,0.0,79,0.00,,,0.00,WeatherDisplay:10.37,2013-11-07 00:20:00,
2013-11-06 19:25:00,53.0,47.0,30.14,ESE,118,2.3,2.3,80,0.00,,,0.00,WeatherDisplay:10.37,2013-11-07 00:25:00,
2013-11-06 19:30:00,53.0,47.0,30.14,SE,139,3.5,3.5,80,0.00,,,0.00,WeatherDisplay:10.37,2013-11-07 00:30:00,
2013-11-06 19:35:00,54.6,47.9,30.13,SE,133,4.0,4.0,78,0.00,,,0.00,WeatherDisplay:10.37,2013-11-07 00:35:00,
2013-11-06 19:40:00,57.0,48.8,30.13,NE,50,2.3,2.3,74,0.00,,,0.00,WeatherDisplay:10.37,2013-11-07 00:40:00,
2013-11-06 19:45:00,57.6,48.3,30.13,SE,144,3.5,3.5,71,0.00,,,0.00,WeatherDisplay:10.37,2013-11-07 00:45:00,
2013-11-06 19:50:00,57.7,48.4,30.13,NE,56,1.2,0.0,71,0.00,,,0.00,WeatherDisplay:10.37,2013-11-07 00:50:00,
2013-11-06 19:55:00,57.2,47.9,30.12,NE,56,1.2,1.2,71,0.00,,,0.00,WeatherDisplay:10.37,2013-11-07 00:55:00,
2013-11-06 20:00:00,56.9,48.0,30.12,East,88,3.5,3.5,72,0.00,,,0.00,WeatherDisplay:10.37,2013-11-07 01:00:00,
2013-11-06 20:05:00,57.3,48.3,30.12,East,96,1.2,0.0,72,0.00,,,0.00,WeatherDisplay:10.37,2013-11-07 01:05:00,
2013-11-06 20:10:00,57.5,48.2,30.12,SE,140,2.0,2.0,71,0.00,,,0.00,WeatherDisplay:10.37,2013-11-07 01:10:00,
2013-11-06 20:15:00,56.9,48.0,30.12,SE,126,2.3,2.3,72,0.00,,,0.00,WeatherDisplay:10.37,2013-11-07 01:15:00,
2013-11-06 20:20:00,57.0,48.1,30.12,North,357,2.0,2.0,72,0.00,,,0.00,WeatherDisplay:10.37,2013-11-07 01:20:00,
2013-11-06 20:25:00,57.7,48.7,30.12,East,96,3.5,3.5,72,0.00,,,0.00,WeatherDisplay:10.37,2013-11-07 01:25:00,
2013-11-06 20:30:00,58.5,48.7,30.12,ESE,105,3.5,3.5,70,0.00,,,0.00,WeatherDisplay:10.37,2013-11-07 01:30:00,
2013-11-06 20:35:00,58.8,49.0,30.12,SSW,204,4.6,4.6,70,0.00,,,0.00,WeatherDisplay:10.37,2013-11-07 01:35:00,
2013-11-06 20:40:00,59.2,49.0,30.12,East,89,3.5,3.5,69,0.00,,,0.00,WeatherDisplay:10.37,2013-11-07 01:40:00,
2013-11-06 20:45:00,58.9,49.1,30.12,East,89,2.3,0.0,70,0.00,,,0.00,WeatherDisplay:10.37,2013-11-07 01:45:00,
2013-11-06 20:50:00,57.8,48.5,30.12,ESE,105,3.5,0.0,71,0.00,,,0.00,WeatherDisplay:10.37,2013-11-07 01:50:00,
2013-11-06 20:55:00,57.2,48.3,30.12,ESE,110,1.2,1.2,72,0.00,,,0.00,WeatherDisplay:10.37,2013-11-07 01:55:00,
2013-11-06 21:00:00,56.7,48.5,30.11,SE,125,3.5,3.5,74,0.00,,,0.00,WeatherDisplay:10.37,2013-11-07 02:00:00,
2013-11-06 21:05:00,56.0,47.8,30.11,SW,232,0.0,0.0,74,0.00,,,0.00,WeatherDisplay:10.37,2013-11-07 02:05:00,
2013-11-06 21:10:00,55.0,47.6,30.11,SW,218,2.0,2.0,76,0.00,,,0.00,WeatherDisplay:10.37,2013-11-07 02:10:00,
2013-11-06 21:15:00,54.0,47.0,30.12,WSW,244,0.0,0.0,77,0.00,,,0.00,WeatherDisplay:10.37,2013-11-07 02:15:00,
2013-11-06 21:21:00,53.2,46.9,30.11,WSW,244,1.2,0.0,79,0.00,,,0.00,WeatherDisplay:10.37,2013-11-07 02:21:00,
2013-11-06 21:26:00,52.4,46.4,30.11,WSW,245,0.0,0.0,80,0.00,,,0.00,WeatherDisplay:10.37,2013-11-07 02:26:00,
2013-11-06 21:31:00,51.6,46.0,30.11,WSW,244,0.0,0.0,81,0.00,,,0.00,WeatherDisplay:10.37,2013-11-07 02:31:00,
2013-11-06 21:36:00,50.9,45.6,30.11,WSW,244,0.0,0.0,82,0.00,,,0.00,WeatherDisplay:10.37,2013-11-07 02:36:00,
2013-11-06 21:41:00,50.3,45.6,30.11,SSW,204,2.3,2.3,84,0.00,,,0.00,WeatherDisplay:10.37,2013-11-07 02:41:00,
2013-11-06 21:46:00,49.9,45.6,30.11,SSW,204,0.0,0.0,85,0.00,,,0.00,WeatherDisplay:10.37,2013-11-07 02:46:00,
2013-11-06 21:51:00,49.3,44.7,30.11,SSW,205,0.0,0.0,84,0.00,,,0.00,WeatherDisplay:10.37,2013-11-07 02:51:00,
2013-11-06 21:56:00,48.8,44.5,30.12,SSW,204,0.0,0.0,85,0.00,,,0.00,WeatherDisplay:10.37,2013-11-07 02:56:00,
2013-11-06 22:01:00,48.3,44.0,30.12,SSW,204,0.0,0.0,85,0.00,,,0.00,WeatherDisplay:10.37,2013-11-07 03:01:00,
2013-11-06 22:06:00,47.7,43.7,30.12,SSW,204,0.0,0.0,86,0.00,,,0.00,WeatherDisplay:10.37,2013-11-07 03:06:00,
2013-11-06 22:11:00,47.4,43.7,30.12,SSW,204,0.0,0.0,87,0.00,,,0.00,WeatherDisplay:10.37,2013-11-07 03:11:00,
2013-11-06 22:16:00,47.0,43.3,30.12,SSW,204,0.0,0.0,87,0.00,,,0.00,WeatherDisplay:10.37,2013-11-07 03:16:00,
2013-11-06 22:21:00,46.5,42.8,30.12,SSW,204,0.0,0.0,87,0.00,,,0.00,WeatherDisplay:10.37,2013-11-07 03:21:00,
2013-11-06 22:26:00,46.1,42.7,30.12,SSW,204,0.0,0.0,88,0.00,,,0.00,WeatherDisplay:10.37,2013-11-07 03:26:00,
2013-11-06 22:31:00,45.7,42.3,30.12,SSW,204,0.0,0.0,88,0.00,,,0.00,WeatherDisplay:10.37,2013-11-07 03:31:00,
2013-11-06 22:36:00,45.3,42.2,30.12,SSW,204,0.0,0.0,89,0.00,,,0.00,WeatherDisplay:10.37,2013-11-07 03:36:00,
2013-11-06 22:41:00,45.1,42.1,30.12,SSW,204,0.0,0.0,89,0.00,,,0.00,WeatherDisplay:10.37,2013-11-07 03:41:00,
2013-11-06 22:46:00,44.8,42.0,30.12,SSW,204,0.0,0.0,90,0.00,,,0.00,WeatherDisplay:10.37,2013-11-07 03:46:00,
2013-11-06 22:51:00,44.6,41.8,30.12,SSW,204,0.0,0.0,90,0.00,,,0.00,WeatherDisplay:10.37,2013-11-07 03:51:00,
2013-11-06 22:56:00,44.6,42.1,30.11,SSW,204,0.0,0.0,91,0.00,,,0.00,WeatherDisplay:10.37,2013-11-07 03:56:00,
2013-11-06 23:01:00,44.2,41.7,30.11,SSW,204,1.2,1.2,91,0.00,,,0.00,WeatherDisplay:10.37,2013-11-07 04:01:00,
2013-11-06 23:06:00,44.1,41.6,30.11,SSW,204,0.0,0.0,91,0.00,,,0.00,WeatherDisplay:10.37,2013-11-07 04:06:00,
2013-11-06 23:11:00,43.8,41.3,30.11,SSW,204,0.0,0.0,91,0.00,,,0.00,WeatherDisplay:10.37,2013-11-07 04:11:00,
2013-11-06 23:16:00,43.5,41.0,30.11,SSW,204,0.0,0.0,91,0.00,,,0.00,WeatherDisplay:10.37,2013-11-07 04:16:00,
2013-11-06 23:21:00,43.4,41.2,30.10,SSW,204,0.0,0.0,92,0.00,,,0.00,WeatherDisplay:10.37,2013-11-07 04:21:00,
2013-11-06 23:26:00,43.3,41.1,30.10,SSW,204,0.0,0.0,92,0.00,,,0.00,WeatherDisplay:10.37,2013-11-07 04:26:00,
2013-11-06 23:31:00,43.2,41.0,30.11,SSW,204,0.0,0.0,92,0.00,,,0.00,WeatherDisplay:10.37,2013-11-07 04:31:00,
2013-11-06 23:36:00,43.1,40.9,30.10,SSW,204,1.2,1.2,92,0.00,,,0.00,WeatherDisplay:10.37,2013-11-07 04:36:00,
2013-11-06 23:41:00,43.1,41.2,30.10,SSW,200,1.2,1.2,93,0.00,,,0.00,WeatherDisplay:10.37,2013-11-07 04:41:00,
2013-11-06 23:46:00,43.2,41.3,30.09,East,81,1.2,1.2,93,0.00,,,0.00,WeatherDisplay:10.37,2013-11-07 04:46:00,
2013-11-06 23:51:00,43.1,41.2,30.10,NNW,344,1.2,1.2,93,0.00,,,0.00,WeatherDisplay:10.37,2013-11-07 04:51:00,
2013-11-06 23:56:00,43.0,41.4,30.09,NNW,344,0.0,0.0,94,0.00,,,0.00,WeatherDisplay:10.37,2013-11-07 04:56:00,